TimeEDT,TemperatureF,Dew PointF,Humidity,Sea Level PressureIn,VisibilityMPH,Wind Direction,Wind SpeedMPH,Gust SpeedMPH,PrecipitationIn,Events,Conditions,WindDirDegrees,DateUTC
12:15 AM,60.8,57.2,88,30.19,10.0,South,8.1,-,N/A,,Clear,190,2013-04-08 04:15:00
12:35 AM,60.8,57.2,88,30.18,10.0,South,8.1,-,N/A,,Clear,170,2013-04-08 04:35:00
12:55 AM,60.8,55.4,82,30.18,10.0,South,6.9,-,N/A,,Clear,180,2013-04-08 04:55:00
1:15 AM,60.8,57.2,88,30.17,10.0,South,6.9,-,N/A,,Clear,180,2013-04-08 05:15:00
1:35 AM,60.8,57.2,88,30.17,10.0,South,9.2,-,N/A,,Clear,180,2013-04-08 05:35:00
1:55 AM,60.8,57.2,88,30.17,10.0,South,5.8,-,N/A,,Clear,180,2013-04-08 05:55:00
2:15 AM,60.8,57.2,88,30.16,10.0,South,4.6,-,N/A,,Clear,190,2013-04-08 06:15:00
2:35 AM,59.0,55.4,88,30.15,10.0,SSE,4.6,-,N/A,,Clear,160,2013-04-08 06:35:00
2:55 AM,60.8,57.2,88,30.14,10.0,South,4.6,-,N/A,,Clear,180,2013-04-08 06:55:00
3:15 AM,60.8,57.2,88,30.14,10.0,South,5.8,-,N/A,,Clear,190,2013-04-08 07:15:00
3:35 AM,60.8,57.2,88,30.14,10.0,South,5.8,-,N/A,,Clear,190,2013-04-08 07:35:00
3:55 AM,60.8,57.2,88,30.14,10.0,South,4.6,-,N/A,,Clear,180,2013-04-08 07:55:00
4:15 AM,59.0,57.2,94,30.14,10.0,South,3.5,-,N/A,,Clear,190,2013-04-08 08:15:00
4:35 AM,57.2,55.4,94,30.15,10.0,Calm,Calm,-,N/A,,Clear,0,2013-04-08 08:35:00
4:55 AM,53.6,51.8,94,30.15,6.0,Calm,Calm,-,N/A,,Clear,0,2013-04-08 08:55:00
5:15 AM,53.6,51.8,94,30.15,7.0,Calm,Calm,-,N/A,,Clear,0,2013-04-08 09:15:00
5:35 AM,53.6,50.0,88,30.15,0.2,Calm,Calm,-,N/A,,Unknown,0,2013-04-08 09:35:00
5:45 AM,51.8,51.8,100,30.16,7.0,Calm,Calm,-,N/A,,Clear,0,2013-04-08 09:45:00
6:45 AM,51.8,50.0,94,30.17,7.0,Calm,Calm,-,N/A,,Clear,0,2013-04-08 10:45:00
7:46 AM,53.6,51.8,94,30.20,7.0,Calm,Calm,-,N/A,,Clear,0,2013-04-08 11:46:00
8:45 AM,62.6,59.0,88,30.21,10.0,Calm,Calm,-,N/A,,Clear,0,2013-04-08 12:45:00
9:45 AM,69.8,60.8,73,30.21,10.0,South,6.9,-,N/A,,Clear,170,2013-04-08 13:45:00
10:50 AM,73.4,57.2,57,30.21,10.0,South,10.4,-,N/A,,Clear,170,2013-04-08 14:50:00
11:45 AM,71.6,59.0,64,30.21,10.0,South,13.8,-,N/A,,Scattered Clouds,170,2013-04-08 15:45:00
12:50 PM,71.6,59.0,64,30.19,10.0,SSE,13.8,-,N/A,,Partly Cloudy,160,2013-04-08 16:50:00
1:56 PM,73.4,57.2,57,30.18,10.0,South,17.3,-,N/A,,Partly Cloudy,170,2013-04-08 17:56:00
2:45 PM,73.4,57.2,57,30.16,10.0,South,17.3,-,N/A,,Partly Cloudy,170,2013-04-08 18:45:00
3:45 PM,73.4,57.2,57,30.15,10.0,South,17.3,-,N/A,,Clear,170,2013-04-08 19:45:00
4:45 PM,71.6,57.2,60,30.14,10.0,South,17.3,-,N/A,,Partly Cloudy,170,2013-04-08 20:45:00
5:45 PM,69.8,57.2,64,30.14,10.0,South,19.6,-,N/A,,Partly Cloudy,180,2013-04-08 21:45:00
6:45 PM,68.0,57.2,68,30.14,10.0,South,17.3,-,N/A,,Clear,170,2013-04-08 22:45:00
7:45 PM,64.4,57.2,77,30.15,10.0,South,11.5,-,N/A,,Clear,180,2013-04-08 23:45:00
8:45 PM,64.4,57.2,77,30.16,10.0,South,9.2,-,N/A,,Clear,190,2013-04-09 00:45:00
10:55 PM,62.6,57.2,82,30.18,10.0,SE,4.6,-,N/A,,Clear,140,2013-04-09 02:55:00
11:15 PM,62.6,59.0,88,30.18,10.0,Calm,Calm,-,N/A,,Clear,0,2013-04-09 03:15:00
11:35 PM,60.8,57.2,88,30.18,10.0,Calm,Calm,-,N/A,,Clear,0,2013-04-09 03:35:00
11:55 PM,59.0,57.2,94,30.19,10.0,Calm,Calm,-,N/A,,Clear,0,2013-04-09 03:55:00